RESURS O1 DEB

Satellite information

Favourite Embed

Satellite Type and Status

DEBRISIN ORBIT

Key statistics

Satellite RESURS O1 DEB at a glance.

Uptime

11363

Days in orbit

Revolutions

≈ 14.4

Per day

Orbit

SSO

Sun Synchronous Orbit

Inclination

98.5

Latest

Satellite identification and parameters

Extended collection of information and parameters for RESURS O1 DEB.

Object identification

Identified? True

Debris? True

Object name: RESURS O1 DEB

International designator: 1994-074E

Object number (NORAD): 23346

Object ID (CCSDS): 23346

Country: COMMONWEALTH OF INDEPENDENT STATES (CIS)

Current information (Y/N): Y

RCS size: SMALL

Orbital parameters

Period: 100.149 minutes

Inclination: 98.4711 deg

SMA: 7143.723 km

Apoapsis: 886.355 km

Periapsis: 644.821 km

RAAN: 83.4755 deg

Eccentricy: 0.01690538

Argument of periapsis: 276.7305 deg

Mean anomaly: 81.467 deg

Mean motion: 14.37857487 rev/day

Mean motion (dot): 0.00001548 rev/day2

B* drag term: 0.00044947441 1/REarth

Two-line elements (TLE)

Creation date: Dec. 14, 2025, 3:07 a.m.

Reference frame: TEME

Reference center: EARTH

Epoch: Dec. 13, 2025, 12:46 p.m. UTC

TLE line 0: 0 RESURS O1 DEB

TLE line 1: 1 23346U 94074E 25347.53236464 .00001548 00000-0 44947-3 0 9995

TLE line 2: 2 23346 98.4711 83.4755 0169054 276.7305 81.4670 14.37857487624481

Live tracking on map

Real-time ground track for satellite RESURS O1 DEB.

In-orbit conjunctions

A list of the most updated potential collisions computed for object RESURS O1 DEB.

Target Orbit TCA Probability of collision Miss distance Type
SL-16 DEB LEO 2025-08-28 04:04:52 0.0002753523 23.0 (m) DEBRIS

Associated space launch

Resurs-O1 N3 or Resurs-O1 1 is the third earth observation satellite in the Russian Resurs-O1 program.

RESURS O1 DEB was lifted into orbit during the mission ‘Zenit-2 | Resurs-O1’, on board a Zenit-2 space rocket.

The launch took place on Nov. 4, 1994, 5:47 a.m. from 45/1.

For more information about the launch, click the button.

Launch to space Zenit-2 | Resurs-O1
Zenit-2 | Resurs-O1

Agency: N/A

Status: Launch Successful

Launch date: Nov. 4, 1994, 5:47 a.m. UTC

Rocket: Zenit-2

Launch pad: 45/1

Location: Baikonur Cosmodrome, Republic of Kazakhstan

...

Latest news about this satellite

There are no fresh news available about this satellite. Check back as we update our databases every day.


Newsletter sign-up

Weekly statistics, charts and insights to help you stay on top of the space industry.